User: anonymous   Login
Location: Paddlesworth
(51.1000°N, 1.1333°E)
Time: 16:23:20
(UTC+00:00)
Language:

NOSS 3-4 (A) - Orbit

View from above orbital plane
View from above orbital plane
View from above satellite
View from above satellite

Ground track
Ground track

The orbit data is extracted from the following two-line orbital elements,

1 31701U 07027A   21204.87887294 0.00000000  00000-0  00000-0 0    03
2 31701  63.3849 222.1680 0314824  20.3110 339.6890 13.40813321    01
Epoch (UTC): 23 July 2021 21:05:34
Eccentricity: 0.0314824
inclination: 63.3849°
perigee height: 870 km
apogee height: 1342 km
right ascension of ascending node: 222.1680°
argument of perigee: 20.3110°
revolutions per day: 13.40813321
mean anomaly at epoch: 339.6890°
orbit number at epoch: 0

The dashed part of the orbit path shows where the satellite is in the earth's shadow,  

DLR